EHI
0 0 0 0 0 0 0 0 0 0 0 0 0 0 0 0 0 0 0 0 0 0 0 0 0 0 0 0 0 0 0 0 0 0 0 0 0 0 0 0 0 0 0 0
0 0 0 0 0 0 0 0 0 0 0 0 0 0 0 0 0 0 0 0 0 0 0 0 0 0 0 0 0 0 0 0 0 0 0 0 0 0 0 0 0 0 0 0
0 0 0 0 0 0 0 0 0 0 0 0 0 0 0 0 0 0 0 0 0 0 0 0 0 0 0 0 0 0 0 0 0 0 0 0 0 0 0 0 0 0 0 0
0 0 0 0 0 0 0 0 0 0 0 0 0 0 0 0 0 0 0 0 0 0 0 0 0 0 0 0 0 0 0 0 0 0 0 0 0 0 0 0 0 0 0 0
0 0 0 0 0 0 0 0 0 0 0 0 0 0 0 0 0 0 0 0 0 0 0 0 0 0 0 0 0 0 0 0 0 0 0 0 0 0 0 0 0 0 0 0
0 0 0 0 0 0 0 0 0 0 0 0 0 0 0 0 0 0 0 0 0 0 0 0 0 0 0 0 0 0 0 0 0 0 0 0 0 0 0 0 0 0 0 0
0 0 0 0 0 0 0 0 0 0 0 0 0 0 0 0 0 0 0 0 0 0 0 0 0 0 0 0 0 0 0 0 0 0 0 0 0 0 0 0 0 0 0 0
0 0 0 0 0 0 0 0 0 0 0 0 0 0 0 0 0 0 0 0 0 0 0 0 0 0 0 0 0 0 0 0 0 0 0 0 0 0 0 0 0 0 0 0
0 0 0 0 0 0 0 0 0 0 0 0 0 0 0 0 0 0 0 0 0 0 0 0 0 0 0 0 0 0 0 0 0 0 0 0 0 0 0 0 0 0 0 0
0 0 0 0 0 0 0 0 0 0 0 0 0 0 0 0 0 0 0 0 0 0 0 0 0 0 0 0 0 0 0 0 0 0 0 0 0 0 0 0 0 0 0 0
0 0 0 0 0 0 0 0 0 0 0 0 0 0 0 0 0 0 0 0 0 0 0 0 0 0 0 0 0 0 0 0 0 0 0 0 0 0 0 0 0 0 0 0
0 0 0 0 0 0 0 0 0 0 0 0 0 0 0 0 0 0 0 0 0 0 0 0 0 0 0 0 0 0 0 0 0 0 0 0 0 0 0 0 0 0 0 0
0 0 0 0 0 0 0 0 0 0 0 0 0 0 0 0 0 0 0 0 0 0 0 0 0 0 0 0 0 0 0 0 0 0 0 0 0 0 0 0 0 0 0 0
0 0 0 0 0 0 0 0 0 0 0 0 0 0 0 0 0 0 0 0 0 0 0 0 0 0 0 0 0 0 0 0 0 0 0 0 0 0 0 0 0 0 0 0
0 0 0 0 0 0 0 0 0 0 0 0 0 0 0 0 0 0 0 0 0 0 0 0 0 0 0 0 0 0 0 0 0 0 0 0 0 0 0 0 0 0 0 0
0 0 0 0 0 0 0 0 0 0 0 0 0 0 0 0 0 0 0 0 0 0 0 0 0 0 0 0 0 0 0 0 0 0 0 0 0 0 0 0 0 0 0 0
0 0 0 0 0 0 0 0 0 0 0 0 0 0 0 0 0 0 0 0 0 0 0 0 0 0 0 0 0 0 0 0 0 0 0 0 0 0 0 0 0 0 0 0
0 0 0 0 0 0 0 0 0 0 0 0 0 0 0 0 0 0 0 0 0 0 0 0 0 0 0 0 0 0 0 0 0 0 0 0 0 0 0 0 0 0 0 0
0 0 0 0 0 0 0 0 0 0 0 0 0 0 0 0 0 0 0 0 0 0 0 0 0 0 0 0 0 0 0 0 0 0 0 0 0 0 0 0 0 0 0 0
0 0 0 0 0 0 0 0 0 0 0 0 0 0 0 0 0 0 0 0 0 0 0 0 0 0 0 0 0 0 0 0 0 0 0 0 0 0 0 0 0 0 0 0
0 0 0 0 0 0 0 0 0 0 0 0 0 0 0 0 0 0 0 0 0 0 0 0 0 0 0 0 0 0 0 0 0 0 0 0 0 0 0 0 0 0 0 0
0 0 0 0 0 0 0 0 0 0 0 0 0 0 0 0 0 0 0 0 0 0 0 0 0 0 0 0 0 0 0 0 0 0 0 0 0 0 0 0 0 0 0 0
0 0 0 0 0 0 0 0 0 0 0 0 0 0 0 0 0 0 0 0 0 0 0 0 0 0 0 0 0 0 0 0 0 0 0 0 0 0 0 0 0 0 0 0
0 0 0 0 0 0 0 0 0 0 0 0 0 0 0 0 0 0 0 0 0 0 0 0 0 0 0 0 0 0 0 0 0 0 0 0 0 0 0 0 0 0 0 0
0 0 0 0 0 0 0 0 0 0 0 0 0 0 0 0 0 0 0 0 0 0 0 0 0 0 0 0 0 0 0 0 0 0 0 0 0 0 0 0 0 0 0 0
0 0 0 0 0 0 0 0 0 0 0 0 0 0 0 0 0 0 0 0 0 0 0 0 0 0 0 0 0 0 0 0 0 0 0 0 0 0 0 0 0 0 0 0
0 0 0 0 0 0 0 0 0 0 0 0 0 0 0 0 0 0 0 0 0 0 0 0 0 0 0 0 0 0 0 0 0 0 0 0 0 0 0 0 0 0 0 0
Wind_Speed
7 6 5 6 6 6 7 7 7 7 7 6 5 5 4 4 4 5 6 7 7 7 7 7 7 7 7 7 6 6 5 4 4 4 4 4 3 3 3 3 3 3 4 5
5 4 4 6 7 7 7 8 8 7 7 4 4 3 3 3 4 5 6 7 8 8 8 8 8 8 7 7 7 6 5 5 4 4 4 4 4 3 3 3 3 3 3 4
4 2 3 6 5 6 4 3 4 6 4 3 4 4 4 3 4 5 6 7 8 8 8 7 8 7 7 7 7 6 5 5 4 4 4 4 4 3 3 3 3 3 3 4
3 2 7 0 3 2 3 3 3 3 3 3 4 5 3 1 3 6 7 8 8 8 8 8 7 7 7 7 6 6 6 5 5 4 4 4 4 4 4 3 3 3 3 4
3 4 6 2 2 2 3 3 2 3 3 4 4 3 2 1 4 6 7 7 7 7 8 7 7 7 7 6 6 6 6 6 5 5 4 4 4 4 4 4 4 3 3 4
3 5 6 0 2 0 2 4 1 2 3 3 3 3 1 3 6 6 6 6 7 7 7 7 7 7 6 6 6 7 7 7 6 5 4 4 4 4 4 4 4 4 3 4
5 6 5 1 0 3 4 2 1 2 3 2 3 4 4 5 6 6 6 7 7 7 6 7 7 7 6 7 7 7 7 7 6 5 5 4 4 4 4 4 4 4 4 4
4 5 4 3 4 3 2 2 1 2 3 4 4 4 5 5 5 6 6 7 7 6 6 7 6 6 7 7 8 8 7 6 6 5 4 4 4 4 3 3 3 4 3 4
4 2 2 2 2 1 1 2 2 3 3 3 4 5 5 6 6 6 6 6 6 6 7 7 6 6 7 8 8 8 7 6 6 5 5 4 4 4 3 3 3 3 3 3
3 4 2 3 2 2 2 3 3 3 3 3 4 5 5 5 6 6 6 6 6 6 7 7 7 7 8 8 8 7 7 6 5 5 5 4 4 3 3 3 3 3 3 3
4 4 3 2 3 2 2 2 2 3 3 3 4 5 5 6 6 6 6 6 6 6 7 8 8 8 8 8 7 7 7 6 5 5 5 4 4 4 4 4 5 5 4 4
4 2 3 2 1 1 2 3 3 3 3 3 4 5 6 6 6 6 6 6 6 7 7 8 8 8 8 7 7 7 6 6 5 4 4 4 4 4 5 6 8 9 9 8
2 1 2 2 2 1 2 3 3 3 4 4 4 4 5 6 6 6 6 6 7 7 7 8 8 8 8 7 7 7 6 6 5 5 4 4 4 4 5 5 6 7 8 8
1 0 1 1 2 2 2 3 3 3 4 4 4 4 5 5 6 6 7 7 7 7 7 7 7 8 8 7 7 7 7 6 6 5 5 5 4 4 4 5 5 4 5 7
1 1 2 2 2 2 2 2 3 4 4 4 4 4 5 6 7 7 7 7 7 7 7 7 7 8 7 7 7 7 6 5 5 5 5 5 4 4 4 5 5 5 5 5
2 2 2 2 3 3 3 3 4 5 5 5 5 5 6 6 7 7 7 6 6 8 7 7 8 8 7 7 7 6 5 8 7 5 5 4 4 4 4 4 5 5 5 5
1 2 2 3 4 4 4 5 5 6 5 6 6 6 6 6 7 7 7 6 7 8 8 8 8 8 8 7 7 5 5 6 8 6 5 5 4 5 5 5 5 5 5 6
3 4 4 5 5 5 5 5 5 6 6 6 6 6 6 6 7 7 7 7 7 7 7 8 8 8 8 7 6 5 5 5 5 5 5 5 5 5 5 5 5 6 5 5
3 4 4 5 5 5 5 5 5 5 5 5 5 6 6 6 7 7 7 7 7 8 8 8 11 8 8 8 8 5 5 5 5 5 5 6 6 5 5 5 5 5 5 4
3 3 4 4 4 4 4 5 5 5 5 5 5 6 6 6 6 6 6 6 6 6 8 9 8 7 7 7 8 5 5 5 5 5 5 5 5 5 5 5 5 5 5 5
4 4 4 4 4 4 4 5 4 5 5 5 5 6 7 7 6 6 6 6 6 7 8 10 7 6 6 7 7 5 5 5 5 5 5 5 5 5 5 5 5 5 5 5
4 4 4 4 4 5 4 4 4 5 5 5 5 6 6 7 6 6 6 6 7 10 7 6 6 8 9 8 5 5 5 5 5 5 5 5 5 5 5 6 5 5 5 5
4 4 5 4 5 5 5 4 4 5 5 5 5 6 6 6 5 5 6 5 6 10 7 6 9 12 11 5 5 5 5 5 5 5 5 5 5 6 6 6 5 5 5 5
4 4 4 4 4 4 5 5 5 4 5 6 5 5 6 5 5 5 6 9 11 11 7 9 12 12 9 4 5 5 5 5 6 5 6 6 5 5 5 6 6 5 5 6
4 4 4 4 4 4 5 5 5 5 5 5 6 5 5 4 5 6 6 7 10 10 7 9 12 11 7 5 5 6 6 6 6 6 6 6 6 6 6 5 5 6 5 5
3 3 3 4 4 4 4 4 4 4 4 5 5 5 5 5 6 6 5 6 8 9 7 6 6 7 5 6 6 6 6 6 7 6 6 6 6 6 6 6 7 6 6 6
3 3 3 3 3 3 4 4 4 5 5 5 6 5 5 5 5 5 6 6 6 6 6 5 5 5 5 6 6 6 6 6 6 6 6 6 6 6 6 7 6 6 6 6
Wind_Direction
268 277 263 259 259 244 235 249 255 267 271 293 315 312 320 333 342 347 349 350 348 345 342 341 340 340 339 337 339 337 331 328 325 322 320 316 309 297 285 265 255 242 233 228
259 256 250 265 267 253 251 254 255 268 274 326 327 327 326 336 340 342 342 342 341 339 336 336 336 333 331 333 333 331 325 323 323 321 321 319 314 304 298 285 270 258 243 237
253 267 273 260 252 225 226 238 238 253 283 333 316 319 315 318 332 332 334 332 332 332 329 327 328 326 325 327 328 326 322 323 322 318 317 314 312 310 307 300 286 270 259 245
261 243 242 156 64 164 204 237 237 265 300 298 307 306 296 311 340 334 331 328 327 327 326 326 326 325 325 327 327 326 324 323 319 316 313 313 312 308 308 300 290 282 273 260
229 248 262 213 173 190 222 254 222 249 288 317 330 289 226 18 343 326 321 319 319 322 320 322 326 327 326 327 327 326 322 319 315 310 306 307 305 302 301 298 296 290 282 272
216 241 254 118 91 358 203 243 171 261 285 317 328 276 307 351 327 321 322 322 322 324 324 324 329 329 324 323 324 323 320 313 307 302 296 295 295 298 298 296 293 289 284 276
227 240 260 43 125 184 218 308 10 267 266 264 265 298 320 315 313 317 320 322 323 323 321 323 326 324 319 319 319 317 314 308 304 301 297 290 292 294 295 293 292 289 285 279
208 223 243 118 148 202 303 3 294 278 275 272 287 307 311 311 315 318 321 323 323 320 319 322 325 321 317 318 318 316 312 306 303 303 303 297 291 291 289 287 285 285 284 284
213 232 55 151 193 323 341 283 288 284 285 282 287 297 308 311 312 313 315 317 319 316 314 319 322 320 314 316 318 316 312 307 304 304 302 297 290 287 285 279 276 282 283 286
245 251 245 243 254 275 284 283 297 295 287 278 283 294 300 304 305 308 309 312 315 313 312 316 323 321 315 315 316 312 310 307 304 301 300 297 293 286 280 277 274 275 279 284
247 271 283 244 235 267 291 304 308 308 295 285 287 293 296 298 301 303 304 308 309 308 307 311 317 318 318 318 316 311 307 304 301 297 297 295 290 284 282 276 274 275 275 276
248 238 238 269 288 288 272 283 288 294 296 295 287 290 295 294 297 299 301 305 305 305 305 308 312 313 316 317 313 309 305 305 302 298 294 292 293 293 282 278 286 279 273 273
276 327 286 288 294 293 287 292 291 281 282 289 292 291 291 293 296 298 298 300 301 302 302 305 307 309 314 315 310 305 299 299 298 295 293 293 292 294 301 299 290 290 287 285
273 309 265 266 286 309 305 307 301 293 291 290 292 295 294 296 298 296 296 298 300 300 299 302 304 305 310 311 307 302 300 296 296 294 292 289 287 289 291 296 302 302 299 297
259 269 275 303 305 304 309 305 298 295 298 301 300 296 296 295 296 297 300 302 301 298 299 303 303 305 311 309 304 301 299 297 297 297 294 290 288 287 287 288 290 295 298 298
305 304 276 275 281 291 293 288 285 289 294 297 298 297 296 294 296 298 301 302 300 300 303 303 301 305 310 307 303 298 293 297 301 298 295 294 292 291 289 287 288 289 290 294
254 280 278 281 281 283 278 274 275 282 287 287 291 297 299 299 298 299 301 301 295 292 296 298 300 305 307 303 299 296 295 297 299 296 293 292 291 288 286 285 285 285 286 288
251 266 265 268 275 279 281 281 280 282 284 290 295 295 294 294 295 299 304 305 302 297 297 299 302 305 303 304 300 294 294 295 295 293 292 291 290 288 287 285 284 284 286 289
270 271 274 273 275 275 279 282 284 285 289 291 289 287 287 287 289 295 300 300 299 301 307 308 309 308 305 304 303 293 293 295 294 293 292 293 293 290 287 286 285 285 288 290
291 286 283 280 281 275 276 284 289 289 289 287 284 286 289 291 291 292 294 288 285 293 301 306 307 303 302 301 303 293 291 291 292 293 292 289 288 287 286 285 285 285 286 286
297 294 288 285 285 282 279 281 283 285 289 284 279 281 286 291 292 290 291 292 298 302 302 303 306 304 303 304 301 293 292 291 290 290 289 288 288 287 285 284 284 283 283 284
296 292 290 287 285 289 290 286 281 282 286 286 284 284 288 293 295 288 277 280 298 307 309 302 303 305 309 308 299 297 294 292 289 288 287 287 285 285 285 286 284 284 283 283
292 289 289 288 285 288 292 291 285 282 282 284 286 287 287 289 290 289 292 295 299 304 305 299 305 311 315 312 306 301 299 297 295 292 290 288 286 284 283 284 282 281 280 281
294 294 294 292 287 287 294 299 296 289 285 284 282 283 287 290 286 278 283 298 305 307 303 303 310 314 316 310 304 300 297 296 295 294 292 291 291 289 285 284 283 282 281 281
292 294 294 295 292 291 295 299 298 296 295 292 292 290 286 283 284 291 293 294 299 304 302 303 309 312 311 301 298 295 294 293 294 293 289 290 289 288 286 284 282 283 283 282
297 296 293 289 288 291 294 295 295 298 299 298 298 297 295 291 289 290 292 294 295 299 300 299 301 304 299 296 295 294 293 295 297 294 290 289 288 287 285 285 285 282 280 279
297 298 297 298 298 295 291 290 292 295 296 295 296 299 299 299 298 298 298 296 297 295 295 294 294 293 293 292 291 291 291 290 290 288 287 285 284 285 285 283 281 281 281 279